Location: Berg
(47.2344°N, 9.5296°E)
Time: 22:40:26
(UTC+00:00)

Meteor 2-5 Rocket - Pass Details

Date: 24 January 2021
Orbit: 833 x 911 km, 81.2° (Epoch: 04 March)

Event Time Altitude Azimuth Distance (km) Brightness Sun altitude
Rises 16:43:49 0° 198° (SSW) 3,388 7.5 -5.7°
Reaches altitude 10° 16:46:15 10° 202° (SSW) 2,450 6.8 -6.1°
Maximum altitude 16:51:45 65° 284° (WNW) 919 4.2 -7.0°
Drops below altitude 10° 16:57:16 10° 6° (N) 2,455 5.9 -7.9°
Sets 16:59:43 0° 10° (N) 3,396 6.6 -8.2°
